W2CS Weather Reports


time (UTC)temp
C
wind
direction
speed
KPH
gust
KPH
rain 1hr
cm
rain 24hr
cm
rain mn
cm
humidity
%
barometer
mb
20200531074525 16 250 0.0 1.6 0.00 0.00 0.00 78 1013.1
20200531073528 16 300 0.0 1.6 0.00 0.00 0.00 77 1013.0
20200531072458 16 302 0.0 3.2 0.00 0.00 0.00 77 1013.0
20200531071451 16 290 0.0 3.2 0.00 0.00 0.00 78 1013.0
20200531070501 16 302 0.0 3.2 0.00 0.00 0.00 76 1013.0
20200531065505 16 301 0.0 3.2 0.00 0.00 0.00 77 1012.9
20200531064445 16 271 0.0 3.2 0.00 0.00 0.00 79 1012.9
20200531063501 16 284 0.0 3.2 0.00 0.00 0.00 77 1012.6
20200531062436 16 275 0.0 1.6 0.00 0.00 0.00 79 1012.5
20200531061426 16 287 0.0 0.0 0.00 0.00 0.00 81 1012.5
20200531060434 16 287 0.0 1.6 0.00 0.00 0.00 81 1012.4
20200531055431 16 282 0.0 1.6 0.00 0.00 0.00 80 1012.4
20200531054440 16 272 0.0 1.6 0.00 0.00 0.00 80 1012.4
20200531053421 16 267 0.0 3.2 0.00 0.00 0.00 79 1012.2
20200531052419 16 282 0.0 3.2 0.00 0.00 0.00 80 1012.4
20200531051358 16 281 0.0 1.6 0.00 0.00 0.00 81 1012.4
20200531050330 16 309 0.0 1.6 0.00 0.00 0.00 82 1012.4
20200531045336 16 292 0.0 1.6 0.00 0.00 0.00 85 1012.4
20200531044349 15 268 0.0 1.6 0.00 0.00 0.00 87 1012.5
20200531043343 15 286 0.0 1.6 0.00 0.00 0.00 90 1012.5
20200531042343 15 269 0.0 1.6 0.00 0.00 0.00 93 1012.6
20200531041315 14 233 0.0 1.6 0.00 0.00 0.00 95 1012.6
20200531040247 14 232 0.0 1.6 0.00 0.00 0.00 96 1012.6
20200531035218 13 91 0.0 0.0 0.00 0.00 0.00 95 1012.4
20200531034219 13 92 0.0 0.0 0.00 0.00 0.00 95 1012.4
20200531033218 13 92 0.0 0.0 0.00 0.00 0.00 95 1012.4
20200531032212 14 92 0.0 0.0 0.00 0.00 0.00 94 1012.4
20200531031207 14 92 0.0 0.0 0.00 0.00 0.00 94 1012.4
20200531030204 14 92 0.0 0.0 0.00 0.00 0.00 94 1012.4
20200531025225 15 92 0.0 0.0 0.00 0.00 0.00 94 1012.3
20200531024227 15 92 0.0 0.0 0.00 0.00 0.00 94 1012.4
20200531023155 15 92 0.0 0.0 0.00 0.00 0.00 94 1012.4
20200531022149 15 92 0.0 0.0 0.00 0.00 0.00 94 1012.5
20200531021159 15 92 0.0 0.0 0.00 0.00 0.00 94 1012.6
20200531020148 15 91 0.0 0.0 0.00 0.00 0.00 93 1012.6
20200531015158 15 91 0.0 0.0 0.00 0.00 0.00 93 1012.5
20200531014219 15 92 0.0 0.0 0.00 0.00 0.00 93 1012.4
20200531013145 15 91 0.0 0.0 0.00 0.00 0.00 92 1012.4
20200531012146 15 91 0.0 0.0 0.00 0.00 0.00 93 1012.4
20200531011132 16 91 0.0 0.0 0.00 0.00 0.00 92 1012.4
20200531010110 16 91 0.0 0.0 0.00 0.00 0.00 92 1012.4
20200531005058 16 91 0.0 0.0 0.00 0.00 0.00 92 1012.4
20200531004047 16 91 0.0 0.0 0.00 0.00 0.00 91 1012.4
20200531003044 17 91 0.0 0.0 0.00 0.00 0.00 90 1012.4
20200531002028 17 92 0.0 0.0 0.00 0.00 0.00 89 1012.3
20200531001024 17 92 0.0 0.0 0.00 0.00 0.00 87 1012.3
20200531000001 18 91 0.0 0.0 0.00 0.00 0.00 86 1012.3
20200530234956 18 91 0.0 0.0 0.00 0.00 0.00 86 1012.1
20200530233949 18 91 0.0 0.0 0.00 0.03 0.00 85 1012.0
20200530232944 19 91 0.0 0.0 0.00 0.03 0.00 81 1012.0
20200530231912 20 91 0.0 0.0 0.00 0.03 0.00 80 1011.9
20200530230931 20 91 0.0 0.0 0.00 0.03 0.00 80 1011.8
20200530225916 20 91 0.0 0.0 0.00 0.03 0.00 79 1011.8
20200530224923 21 91 0.0 0.0 0.00 0.03 0.00 79 1011.7
20200530223858 21 91 0.0 0.0 0.00 0.03 0.00 78 1011.5
20200530222919 21 91 0.0 0.0 0.00 0.03 0.00 74 1011.5
20200530221938 21 92 0.0 1.6 0.00 0.03 0.00 73 1011.4
20200530220945 22 318 0.0 6.4 0.00 0.03 0.00 74 1011.4
20200530215951 22 244 0.0 0.0 0.00 0.03 0.00 74 1011.4
20200530215005 22 281 0.0 3.2 0.00 0.03 0.00 74 1011.4
20200530214007 22 276 0.0 1.6 0.00 0.03 0.00 74 1011.4
20200530212934 22 292 0.0 1.6 0.00 0.03 0.00 76 1011.4
20200530211957 22 306 0.0 1.6 0.00 0.03 0.00 75 1011.4
20200530211013 22 305 0.0 1.6 0.00 0.03 0.00 75 1011.4
20200530210029 22 259 0.0 4.8 0.00 0.03 0.00 76 1011.4
20200530205041 23 259 0.0 4.8 0.00 0.03 0.00 75 1011.4
20200530204036 23 227 0.0 1.6 0.00 0.03 0.00 75 1011.4
20200530203008 23 221 0.0 3.2 0.00 0.03 0.00 75 1011.4
20200530201947 23 215 0.0 3.2 0.00 0.03 0.00 76 1011.5
20200530200922 23 173 0.0 1.6 0.00 0.03 0.00 78 1011.4
20200530195928 23 157 0.0 1.6 0.00 0.03 0.00 79 1011.4
20200530194926 23 158 0.0 0.0 0.00 0.03 0.00 79 1011.4
20200530193947 23 150 0.0 4.8 0.00 0.03 0.00 80 1011.4
20200530193000 23 192 0.0 1.6 0.00 0.03 0.00 78 1011.4
20200530192000 23 238 0.0 4.8 0.00 0.03 0.00 80 1011.5
20200530191014 23 146 0.0 3.2 0.00 0.03 0.00 81 1011.7
20200530190034 23 222 0.0 3.2 0.00 0.03 0.00 83 1011.7
20200530185032 23 101 0.0 3.2 0.00 0.03 0.00 81 1011.7
20200530184002 23 226 0.0 8.0 0.00 0.03 0.00 79 1011.5
20200530183019 24 188 0.0 8.0 0.00 0.03 0.00 77 1011.5
20200530182030 25 98 0.0 4.8 0.00 0.03 0.00 76 1011.4
20200530181001 26 248 0.0 3.2 0.00 0.03 0.00 81 1011.5
20200530175946 26 244 0.0 3.2 0.00 0.03 0.00 76 1011.5
20200530175001 26 240 0.0 3.2 0.00 0.03 0.00 75 1011.5
20200530174013 26 219 0.0 3.2 0.00 0.03 0.00 77 1011.7
20200530172947 26 190 0.0 3.2 0.00 0.03 0.00 76 1011.7
20200530171947 26 327 0.0 3.2 0.00 0.03 0.00 79 1011.7
20200530170919 26 284 0.0 6.4 0.00 0.03 0.00 78 1011.8
20200530165858 25 205 1.6 6.4 0.00 0.03 0.00 84 1012.0
20200530164829 25 270 0.0 4.8 0.00 0.03 0.00 82 1012.0
20200530163851 25 148 0.0 0.0 0.00 0.03 0.00 81 1011.9
20200530162833 25 232 0.0 3.2 0.00 0.03 0.00 79 1012.3
20200530161842 25 223 0.0 4.8 0.00 0.03 0.00 83 1012.3
20200530160854 25 99 0.0 4.8 0.00 0.03 0.00 81 1012.4
20200530155856 24 265 0.0 3.2 0.00 0.03 0.00 82 1012.5
20200530154912 24 330 0.0 4.8 0.00 0.03 0.00 80 1012.5
20200530153848 24 190 0.0 4.8 0.00 0.03 0.00 85 1012.8
20200530152906 23 244 0.0 3.2 0.00 0.03 0.00 86 1012.8
20200530151901 24 238 0.0 3.2 0.00 0.03 0.00 85 1012.8
20200530150841 23 305 0.0 0.0 0.00 0.03 0.00 84 1012.7
20200530145903 23 198 0.0 3.2 0.00 0.03 0.00 88 1012.8
20200530144839 22 189 0.0 3.2 0.00 0.03 0.00 89 1012.8
20200530143820 22 165 0.0 1.6 0.00 0.03 0.00 93 1013.0
20200530142759 21 195 0.0 0.0 0.00 0.05 0.00 93 1013.0
20200530141817 21 272 0.0 1.6 0.00 0.08 0.00 94 1013.0
20200530140824 20 125 0.0 1.6 0.00 0.10 0.00 96 1013.0
20200530135837 19 125 0.0 3.2 0.00 0.10 0.00 97 1013.0
20200530134844 18 95 0.0 3.2 0.00 0.10 0.00 97 1013.0
20200530133846 18 136 0.0 3.2 0.00 0.10 0.00 97 1013.0
20200530132819 18 134 0.0 0.0 0.00 0.10 0.00 98 1013.2
20200530131801 18 138 0.0 0.0 0.00 0.10 0.00 99 1013.2
20200530130759 17 138 0.0 1.6 0.00 0.10 0.00 98 1013.2
20200530125806 17 170 0.0 0.0 0.00 0.10 0.00 98 1013.2
20200530124801 16 169 0.0 0.0 0.00 0.10 0.00 98 1013.2
20200530123818 16 142 0.0 1.6 0.00 0.10 0.00 98 1013.4
20200530122752 16 142 0.0 0.0 0.00 0.10 0.00 98 1013.3
20200530121800 16 132 0.0 0.0 0.00 0.10 0.00 98 1013.3
20200530120737 16 86 0.0 0.0 0.00 0.10 0.00 98 1013.2
20200530115747 16 98 0.0 0.0 0.00 0.10 0.00 98 1013.1
20200530114750 16 99 0.0 1.6 0.00 0.10 0.00 98 1013.1
20200530113759 16 64 0.0 0.0 0.00 0.10 0.00 98 1013.0
20200530112735 16 281 0.0 0.0 0.00 0.10 0.00 98 1013.0
20200530111738 16 281 0.0 0.0 0.00 0.10 0.00 98 1013.0
20200530110755 16 281 0.0 1.6 0.00 0.10 0.00 98 1012.9
20200530105803 16 281 0.0 0.0 0.00 0.10 0.00 98 1012.9
20200530104758 16 281 0.0 0.0 0.00 0.10 0.00 99 1012.9
20200530103731 16 281 0.0 0.0 0.00 0.10 0.00 98 1012.8
20200530102751 16 281 0.0 0.0 0.00 0.10 0.00 98 1012.6
20200530101728 16 281 0.0 0.0 0.00 0.10 0.00 98 1012.6
20200530100743 16 281 0.0 0.0 0.00 0.10 0.00 98 1012.6
20200530095738 16 280 0.0 0.0 0.00 0.10 0.00 98 1012.5
20200530094737 16 281 0.0 0.0 0.00 0.10 0.00 98 1012.5
20200530093755 16 281 0.0 0.0 0.00 0.10 0.00 98 1012.5
20200530092747 16 281 0.0 0.0 0.00 0.10 0.00 98 1013.0
20200530091814 16 281 0.0 1.6 0.00 0.10 0.00 98 1013.0
20200530090750 16 321 0.0 3.2 0.00 0.10 0.00 98 1013.0
20200530085734 16 271 0.0 4.8 0.00 0.10 0.00 98 1013.5
20200530084711 16 270 0.0 4.8 0.00 0.10 0.00 98 1013.5
20200530083657 16 312 0.0 4.8 0.00 0.10 0.00 98 1013.2
20200530082719 16 83 0.0 1.6 0.00 0.10 0.00 98 1013.0
20200530081709 16 339 0.0 0.0 0.00 0.10 0.00 98 1013.0
20200530080643 16 0 0.0 1.6 0.00 0.10 0.00 98 1013.3
20200530075609 16 232 0.0 0.0 0.00 0.13 0.00 98 1013.5